Radiation Dose at Monitoring Post of Fukushima Daini Nuclear Power Station
Date,Time,MP-1(microSv/h),MP-2(microSv/h),MP-3(microSv/h),MP-4(microSv/h),MP-5(microSv/h),MP-6(microSv/h),MP-7(microSv/h),Wind Direction,Wind Velocity(m/s),Rain
2013/01/29,00:00,1.1,0.7,1.1,1.0,0.9,0.5,0.4,west,1.8,No
2013/01/29,00:10,1.1,0.7,1.1,1.0,0.9,0.5,0.4,west-southwest,2.4,No
2013/01/29,00:20,1.1,0.7,1.1,1.0,0.9,0.5,0.4,west,3.9,No
2013/01/29,00:30,1.1,0.7,1.1,1.0,0.9,0.5,0.4,west-southwest,3.9,No
2013/01/29,00:40,1.1,0.7,1.1,1.0,0.9,0.5,0.4,west,5.1,No
2013/01/29,00:50,1.1,0.7,1.1,1.0,0.9,0.5,0.4,west,4.7,No
2013/01/29,01:00,1.1,0.7,1.1,1.0,0.9,0.5,0.4,west,4.6,No
2013/01/29,01:10,1.1,0.7,1.1,1.0,0.9,0.5,0.4,southwest,3.9,No
2013/01/29,01:20,1.1,0.7,1.1,1.0,0.9,0.5,0.4,west-southwest,4.7,No
2013/01/29,01:30,1.1,0.7,1.1,1.0,0.9,0.5,0.4,west,3.1,No
2013/01/29,01:40,1.1,0.7,1.1,1.0,0.9,0.5,0.4,west-southwest,2.3,No
2013/01/29,01:50,1.1,0.7,1.1,1.0,0.9,0.5,0.4,southwest,2.3,No
2013/01/29,02:00,1.1,0.7,1.1,1.0,0.9,0.5,0.4,south-southwest,1.8,No
2013/01/29,02:10,1.1,0.7,1.1,1.0,0.9,0.5,0.4,southwest,1.8,No
2013/01/29,02:20,1.1,0.7,1.1,1.0,0.9,0.5,0.4,southwest,2.3,No
2013/01/29,02:30,1.1,0.7,1.1,1.0,0.9,0.5,0.4,west-southwest,2.4,No
2013/01/29,02:40,1.1,0.7,1.1,1.0,0.9,0.5,0.4,west-northwest,2.2,No
2013/01/29,02:50,1.1,0.7,1.1,1.0,0.9,0.5,0.4,west-northwest,3.0,No
2013/01/29,03:00,1.1,0.7,1.1,1.0,0.9,0.5,0.4,west-northwest,5.8,No
2013/01/29,03:10,1.1,0.7,1.1,1.0,0.9,0.5,0.4,west-northwest,6.6,No
2013/01/29,03:20,1.1,0.7,1.1,1.0,0.9,0.5,0.4,northwest,6.5,No
2013/01/29,03:30,1.1,0.7,1.1,1.0,0.9,0.5,0.4,northwest,5.8,No
2013/01/29,03:40,1.1,0.7,1.1,1.0,0.9,0.5,0.4,northwest,5.9,No
2013/01/29,03:50,1.1,0.7,1.1,1.0,0.9,0.5,0.4,northwest,6.5,No
2013/01/29,04:00,1.1,0.7,1.1,1.0,0.9,0.5,0.4,northwest,5.8,No
2013/01/29,04:10,1.1,0.7,1.1,1.0,0.9,0.5,0.4,northwest,4.5,No
2013/01/29,04:20,1.1,0.7,1.1,1.0,0.9,0.5,0.4,north-northwest,4.5,No
2013/01/29,04:30,1.1,0.7,1.1,1.0,0.9,0.5,0.4,northwest,4.3,No
2013/01/29,04:40,1.1,0.7,1.1,1.0,0.9,0.5,0.4,northwest,3.9,No
2013/01/29,04:50,1.1,0.7,1.1,1.0,0.9,0.5,0.4,west-northwest,3.0,No
2013/01/29,05:00,1.1,0.7,1.1,1.0,0.9,0.5,0.4,northwest,2.9,No
2013/01/29,05:10,1.1,0.7,1.1,1.0,0.9,0.5,0.4,northwest,3.0,No
2013/01/29,05:20,1.1,0.7,1.1,1.0,0.9,0.5,0.4,northwest,2.4,No
2013/01/29,05:30,1.1,0.7,1.1,1.0,0.9,0.5,0.4,northwest,3.5,No
2013/01/29,05:40,1.1,0.7,1.1,1.0,0.9,0.5,0.4,northwest,2.8,No
2013/01/29,05:50,1.1,0.7,1.1,1.0,0.9,0.5,0.4,north-northwest,2.0,No
2013/01/29,06:00,1.1,0.7,1.1,1.0,0.9,0.5,0.4,north-northwest,1.9,No
2013/01/29,06:10,1.1,0.7,1.1,1.0,0.9,0.5,0.4,west-northwest,0.9,No
2013/01/29,06:20,1.1,0.7,1.1,1.0,0.9,0.5,0.4,west,2.3,No
2013/01/29,06:30,1.1,0.7,1.1,1.0,0.9,0.5,0.4,northwest,2.7,No
2013/01/29,06:40,1.1,0.7,1.1,1.0,0.9,0.5,0.4,northwest,3.0,No
2013/01/29,06:50,1.1,0.7,1.1,1.0,0.9,0.5,0.4,northwest,2.4,No
2013/01/29,07:00,1.1,0.7,1.1,1.0,0.9,0.5,0.4,north,3.3,No
2013/01/29,07:10,1.1,0.7,1.1,1.0,0.9,0.5,0.4,north,3.3,No
2013/01/29,07:20,1.1,0.7,1.1,1.0,0.9,0.5,0.4,north-northwest,3.1,No
2013/01/29,07:30,1.1,0.7,1.1,1.0,0.9,0.5,0.4,north-northwest,4.0,No
2013/01/29,07:40,1.1,0.7,1.1,1.0,0.9,0.5,0.4,northwest,4.4,No
2013/01/29,07:50,1.1,0.7,1.1,1.0,0.9,0.5,0.4,north-northwest,3.7,No
2013/01/29,08:00,1.1,0.7,1.1,1.0,0.9,0.5,0.4,northwest,2.4,No
2013/01/29,08:10,1.1,0.7,1.1,1.0,0.9,0.5,0.4,north-northwest,1.9,No
2013/01/29,08:20,1.1,0.7,1.1,1.0,0.9,0.5,0.4,east-northeast,2.3,No
2013/01/29,08:30,1.1,0.7,1.1,1.0,0.9,0.5,0.4,east-northeast,1.2,No
2013/01/29,08:40,1.1,0.7,1.1,1.0,0.9,0.5,0.4,east-northeast,1.8,No
2013/01/29,08:50,1.1,0.7,1.1,1.0,0.9,0.5,0.4,east-northeast,2.5,No
2013/01/29,09:00,1.1,0.7,1.1,1.0,0.9,0.5,0.4,east,2.5,No
2013/01/29,09:10,1.1,0.7,1.1,1.0,0.9,0.5,0.4,east-northeast,1.7,No
2013/01/29,09:20,1.1,0.7,1.1,1.0,0.9,0.5,0.4,north-northeast,3.2,No
2013/01/29,09:30,1.1,0.7,1.1,1.0,0.9,0.5,0.4,north-northeast,4.2,No
2013/01/29,09:40,-,0.7,1.1,1.0,0.9,0.5,0.4,north-northeast,5.7,No
2013/01/29,09:50,-,0.7,1.1,1.0,0.9,0.5,0.4,north-northeast,4.8,No
2013/01/29,10:00,-,0.7,1.1,1.0,0.9,0.5,0.4,north-northeast,3.9,No
2013/01/29,10:10,-,0.7,1.1,1.0,0.9,0.5,0.4,north,3.3,No
2013/01/29,10:20,-,0.7,1.1,1.0,0.9,0.5,0.4,north-northwest,2.6,No
2013/01/29,10:30,-,0.7,1.1,1.0,0.9,0.5,0.4,north,1.9,No
2013/01/29,10:40,-,0.7,1.1,1.0,0.9,0.5,0.4,northeast,2.1,No
2013/01/29,10:50,-,0.7,1.1,1.0,0.9,0.5,0.4,east-northeast,2.1,No
2013/01/29,11:00,-,0.7,1.1,1.0,0.9,0.5,0.4,southeast,1.7,No
2013/01/29,11:10,-,0.7,1.1,1.0,0.9,0.5,0.4,west-southwest,3.2,No
2013/01/29,11:20,-,0.7,1.1,1.0,0.9,0.5,0.4,west-northwest,6.9,No
2013/01/29,11:30,-,0.7,1.1,1.0,0.9,0.5,0.4,west-northwest,5.8,No
2013/01/29,11:40,-,0.7,1.1,1.0,0.9,0.5,0.4,east,2.8,No
2013/01/29,11:50,-,0.7,1.1,1.0,0.9,0.5,0.4,west-northwest,2.9,No
2013/01/29,12:00,-,0.7,1.1,1.0,0.9,0.5,0.4,northwest,5.3,No
2013/01/29,12:10,-,0.7,1.1,1.0,0.9,0.5,0.4,west-northwest,7.0,No
2013/01/29,12:20,-,0.7,1.1,1.0,0.9,0.5,0.4,west-northwest,7.4,No
2013/01/29,12:30,-,0.7,1.1,1.0,0.9,0.5,0.4,north-northwest,7.2,No
2013/01/29,12:40,-,0.7,1.1,1.0,0.9,0.5,0.4,west-northwest,4.4,No
2013/01/29,12:50,-,0.7,1.1,1.0,0.9,0.5,0.4,west,6.5,No
2013/01/29,13:00,-,0.7,1.1,1.0,0.9,0.5,0.4,west-northwest,5.7,No
2013/01/29,13:10,-,0.7,1.1,1.0,0.9,0.5,0.4,west-northwest,6.9,No
2013/01/29,13:20,-,0.7,1.1,1.0,0.9,0.5,0.4,west-northwest,7.6,No
2013/01/29,13:30,-,0.7,1.1,1.0,0.9,0.5,0.4,west-northwest,7.0,No
2013/01/29,13:40,-,0.7,1.1,1.0,0.9,0.5,0.4,west,6.8,No
2013/01/29,13:50,-,0.7,1.1,1.0,0.9,0.5,0.4,west,8.6,No
2013/01/29,14:00,-,0.7,1.1,1.0,0.9,0.5,0.4,west-northwest,10.7,No
2013/01/29,14:10,-,0.7,1.1,1.0,0.9,0.5,0.4,west-northwest,10.3,No
2013/01/29,14:20,-,0.7,1.1,1.0,0.9,0.5,0.4,west-northwest,11.2,No
2013/01/29,14:30,-,0.7,1.1,1.0,0.9,0.5,0.4,west-northwest,8.9,No
2013/01/29,14:40,-,0.7,1.1,1.0,0.9,0.5,0.4,west-northwest,11.4,No
2013/01/29,14:50,-,0.7,1.1,1.0,0.9,0.5,0.4,west-northwest,10.3,No
2013/01/29,15:00,-,0.7,1.1,1.0,0.9,0.5,0.4,west-northwest,8.5,No
2013/01/29,15:10,-,0.7,1.1,1.0,0.9,0.5,0.4,northwest,7.2,No
2013/01/29,15:20,1.1,0.7,1.1,1.0,0.9,0.5,0.4,west-northwest,7.1,No
2013/01/29,15:30,1.1,0.7,1.1,1.0,0.9,0.5,0.4,west-northwest,8.1,No
2013/01/29,15:40,1.1,0.7,1.1,1.0,0.9,0.5,0.4,west-northwest,10.9,No
2013/01/29,15:50,1.1,0.7,1.1,1.0,0.9,0.5,0.4,west-northwest,9.8,No
2013/01/29,16:00,1.1,0.7,1.1,1.0,0.9,0.5,0.4,west,9.6,No
2013/01/29,16:10,1.1,0.7,1.1,1.0,0.9,0.5,0.4,west-northwest,9.8,No
2013/01/29,16:20,1.1,0.7,1.1,1.0,0.9,0.5,0.4,west,11.8,No
2013/01/29,16:30,1.1,0.7,1.1,1.0,0.9,0.5,0.4,west-northwest,11.5,No
2013/01/29,16:40,1.1,0.7,1.1,1.0,0.9,0.5,0.4,west-northwest,9.8,No
2013/01/29,16:50,1.1,0.7,1.1,1.0,0.9,0.5,0.4,west-northwest,11.8,No
2013/01/29,17:00,1.1,0.7,1.1,1.0,0.9,0.5,0.4,west-northwest,12.0,No
2013/01/29,17:10,1.1,0.7,1.1,1.0,0.9,0.5,0.4,west-northwest,10.7,No
2013/01/29,17:20,1.1,0.7,1.1,1.0,0.9,0.5,0.4,west,10.1,No
2013/01/29,17:30,1.1,0.7,1.1,1.0,0.9,0.5,0.4,west-northwest,9.5,No
2013/01/29,17:40,1.1,0.7,1.1,1.0,0.9,0.5,0.4,west-northwest,8.3,No
2013/01/29,17:50,1.1,0.7,1.1,1.0,0.9,0.5,0.4,west-northwest,9.3,No
2013/01/29,18:00,1.1,0.7,1.1,1.0,0.9,0.5,0.4,west-northwest,8.9,No
2013/01/29,18:10,1.1,0.7,1.1,1.0,0.9,0.5,0.4,west-northwest,8.4,No
2013/01/29,18:20,1.1,0.7,1.1,1.0,0.9,0.5,0.4,west-northwest,6.1,No
2013/01/29,18:30,1.1,0.7,1.1,1.0,0.9,0.5,0.4,west-northwest,5.8,No
2013/01/29,18:40,1.1,0.7,1.1,1.0,0.9,0.5,0.4,west,6.6,No
2013/01/29,18:50,1.1,0.7,1.1,1.0,0.9,0.5,0.4,west,5.0,No
2013/01/29,19:00,1.1,0.7,1.1,1.0,0.9,0.5,0.4,west,4.8,No
2013/01/29,19:10,1.1,0.7,1.1,1.0,0.9,0.5,0.4,west,5.0,No
2013/01/29,19:20,1.1,0.7,1.1,1.0,0.9,0.5,0.4,west-northwest,5.1,No
2013/01/29,19:30,1.1,0.7,1.1,1.0,0.9,0.5,0.4,west,6.0,No
2013/01/29,19:40,1.1,0.7,1.1,1.0,0.9,0.5,0.4,west-northwest,5.8,No
2013/01/29,19:50,1.1,0.7,1.1,1.0,0.9,0.5,0.4,west-northwest,4.0,No
2013/01/29,20:00,1.1,0.7,1.1,1.0,0.9,0.5,0.4,west-northwest,3.3,No
2013/01/29,20:10,1.1,0.7,1.1,1.0,0.9,0.5,0.4,west-southwest,2.9,No
2013/01/29,20:20,1.1,0.7,1.1,1.0,0.9,0.5,0.4,west-northwest,3.6,No
2013/01/29,20:30,1.1,0.7,1.1,1.0,0.9,0.5,0.4,west-northwest,3.5,No
2013/01/29,20:40,1.1,0.7,1.1,1.0,0.9,0.5,0.4,west-northwest,3.0,No
2013/01/29,20:50,1.1,0.7,1.1,1.0,0.9,0.5,0.4,west-northwest,5.0,No
2013/01/29,21:00,1.1,0.7,1.1,1.0,0.9,0.5,0.4,west-northwest,3.5,No
2013/01/29,21:10,1.1,0.7,1.1,1.0,0.9,0.5,0.4,west-northwest,3.8,No
2013/01/29,21:20,1.1,0.7,1.1,1.0,0.9,0.5,0.4,west-northwest,4.1,No
2013/01/29,21:30,1.1,0.7,1.1,1.0,0.9,0.5,0.4,west-northwest,1.8,No
2013/01/29,21:40,1.1,0.7,1.1,1.0,0.9,0.5,0.4,northwest,5.4,No
2013/01/29,21:50,1.1,0.7,1.1,1.0,0.9,0.5,0.4,north,2.8,No
2013/01/29,22:00,1.1,0.7,1.1,1.0,0.9,0.5,0.4,north-northwest,3.2,No
2013/01/29,22:10,1.1,0.7,1.1,1.0,0.9,0.5,0.4,northwest,3.6,No
2013/01/29,22:20,1.1,0.7,1.1,1.0,0.9,0.5,0.4,west-northwest,2.6,No
2013/01/29,22:30,1.1,0.7,1.1,1.0,0.9,0.5,0.4,west-northwest,3.5,No
2013/01/29,22:40,1.1,0.7,1.1,1.0,0.9,0.5,0.4,west-northwest,5.9,No
2013/01/29,22:50,1.1,0.7,1.1,1.0,0.9,0.5,0.4,west-northwest,4.5,No
2013/01/29,23:00,1.1,0.7,1.1,1.0,0.9,0.5,0.4,west,3.9,No
2013/01/29,23:10,1.1,0.7,1.1,1.0,0.9,0.5,0.4,west-northwest,3.7,No
2013/01/29,23:20,1.1,0.7,1.1,1.0,0.9,0.5,0.4,west-northwest,3.3,No
2013/01/29,23:30,1.1,0.7,1.1,1.0,0.9,0.5,0.4,northwest,2.1,No
2013/01/29,23:40,1.1,0.7,1.1,1.0,0.9,0.5,0.4,north-northwest,1.8,No
2013/01/29,23:50,1.1,0.7,1.1,1.0,0.9,0.5,0.4,north,1.5,No
